Pottstown, PA

9:23 AM EDT on May 23, 2018 (GMT -0400)
Pottstown Limerick

Weather History for KPTW - March, 2013

Change the Weather History Date:

Tuesday, March 26, 2013

  Actual Average (KRDG) Record (KRDG)
Temperature  
Mean Temperature 42 °F -  
Max Temperature 52 °F 52 °F 82 °F (1921)
Min Temperature 33 °F 34 °F 17 °F (1983)
Degree Days  
Heating Degree Days 23    
Moisture  
Dew Point 32 °F    
Average Humidity 77    
Maximum Humidity 100    
Minimum Humidity 36    
Precipitation  
Precipitation 0.04 in - - ()
Sea Level Pressure  
Sea Level Pressure 29.79 in    
Wind  
Wind Speed 5 mph (WNW)    
Max Wind Speed 13 mph    
Max Gust Speed 22 mph    
Visibility 8 miles    
Events Rain    
Averages and records for this station are not official NWS values.
T = Trace of Precipitation, MM = Missing Value Source: NWS Daily Summary

Daily Weather History Graph

Daily Weather History Graph

Search for Another Location

Airport or City:

Astronomy

Mar. 26, 2013 Rise Set
Actual Time 6:55 AM EDT 7:20 PM EDT
Civil Twilight 6:28 AM EDT 7:48 PM EDT
Nautical Twilight 5:56 AM EDT 8:20 PM EDT
Astronomical Twilight 5:23 AM EDT 8:52 PM EDT
Moon 6:55 PM EDT (3/26) 6:10 AM EDT (3/26)
Length of Visible Light 13h 19m
Length of Day
12h 25m
Waxing Gibbous, 99% of the Moon is Illuminated
Mar 26
Waxing Gibbous
Mar 27
Full
Apr 3
Last Quarter
Apr 10
New
Apr 18
First Quarter

Hourly Weather History & Observations

Time (EDT) Temp. Windchill Dew Point Humidity Pressure Visibility Wind Dir Wind Speed Gust Speed Precip Events Conditions
12:44 AM 35.6 °F 32.8 °F 33.8 °F 93% 29.67 in 4.0 mi WNW 3.5 mph - 0.01 in Rain Light Rain
12:54 AM 34.0 °F 31.0 °F 33.1 °F 96% 29.67 in 4.0 mi WNW 3.5 mph - 0.01 in Rain Light Rain
1:09 AM 33.8 °F - 33.8 °F 100% 29.67 in 4.0 mi Calm Calm - 0.00 in Rain Light Rain
1:54 AM 34.0 °F - 33.1 °F 96% 29.68 in 4.0 mi Calm Calm - 0.00 in   Overcast
2:54 AM 34.0 °F 31.0 °F 33.1 °F 96% 29.69 in 5.0 mi WNW 3.5 mph - N/A   Overcast
3:54 AM 34.0 °F 31.0 °F 33.1 °F 96% 29.70 in 7.0 mi WNW 3.5 mph - N/A   Overcast
4:54 AM 34.0 °F - 33.1 °F 96% 29.71 in 8.0 mi Calm Calm - N/A   Overcast
5:54 AM 34.0 °F 31.0 °F 33.1 °F 96% 29.73 in 9.0 mi WNW 3.5 mph - N/A   Overcast
6:54 AM 34.0 °F 29.8 °F 32.0 °F 92% 29.74 in 10.0 mi WNW 4.6 mph - N/A   Overcast
7:54 AM 35.1 °F 31.0 °F 32.0 °F 89% 29.76 in 10.0 mi WNW 4.6 mph - N/A   Overcast
8:54 AM 37.0 °F 32.4 °F 33.1 °F 86% 29.79 in 10.0 mi WNW 5.8 mph - N/A   Overcast
9:54 AM 39.0 °F 32.8 °F 32.0 °F 76% 29.80 in 10.0 mi WNW 9.2 mph - N/A   Overcast
10:54 AM 42.1 °F 37.1 °F 34.0 °F 73% 29.80 in 10.0 mi West 8.1 mph - N/A   Overcast
11:54 AM 45.0 °F 40.1 °F 33.1 °F 63% 29.81 in 10.0 mi West 9.2 mph - N/A   Overcast
12:54 PM 48.0 °F - 30.9 °F 52% 29.80 in 10.0 mi West 9.2 mph 16.1 mph N/A   Mostly Cloudy
1:54 PM 48.9 °F - 28.9 °F 46% 29.79 in 10.0 mi West 12.7 mph 18.4 mph N/A   Mostly Cloudy
2:54 PM 51.1 °F - 25.0 °F 36% 29.79 in 10.0 mi WNW 11.5 mph 21.9 mph N/A   Mostly Cloudy
3:54 PM 51.1 °F - 25.0 °F 36% 29.79 in 10.0 mi West 8.1 mph 19.6 mph N/A   Mostly Cloudy
4:54 PM 51.1 °F - 25.0 °F 36% 29.79 in 10.0 mi West 9.2 mph - N/A   Partly Cloudy
5:54 PM 50.0 °F - 25.0 °F 38% 29.80 in 10.0 mi Variable 6.9 mph - N/A   Overcast
6:52 PM 42.8 °F 37.0 °F 35.6 °F 76% 29.86 in 6.0 mi WNW 10.4 mph 20.7 mph 0.02 in Rain Rain
6:54 PM 42.1 °F 36.6 °F 35.1 °F 76% 29.86 in 6.0 mi WNW 9.2 mph 20.7 mph 0.02 in Rain Rain
7:13 PM 41.0 °F 36.4 °F 35.6 °F 81% 29.86 in 10.0 mi West 6.9 mph - 0.00 in Rain Light Rain
7:54 PM 39.9 °F 37.8 °F 36.0 °F 86% 29.87 in 10.0 mi West 3.5 mph - 0.00 in   Overcast
8:54 PM 39.9 °F 35.1 °F 36.0 °F 86% 29.89 in 10.0 mi NW 6.9 mph - N/A   Overcast
9:54 PM 39.0 °F - 35.1 °F 86% 29.92 in 10.0 mi Calm Calm - N/A   Mostly Cloudy
10:54 PM 37.9 °F - 34.0 °F 86% 29.92 in 10.0 mi Calm Calm - 0.01 in   Scattered Clouds
11:54 PM 37.0 °F - 35.1 °F 93% 29.93 in 10.0 mi Calm Calm - N/A   Scattered Clouds